Location: Crocus Hill
(18.2167°N, 63.0667°W)
Time: 07:30:57
(UTC+00:00)

NOAA 6 - Pass Details

Date: 26 January 2020
Orbit: 773 x 786 km, 98.7° (Epoch: 17 February)

Event Time Altitude Azimuth Distance (km) Brightness Sun altitude
Rises 09:24:50 0° 16° (NNE) 3,272 7.3 -19.4°
Reaches altitude 10° 09:27:11 10° 20° (NNE) 2,342 6.6 -18.9°
Maximum altitude 09:32:19 66° 102° (ESE) 853 4.4 -17.7°
Drops below altitude 10° 09:37:25 10° 184° (S) 2,332 6.6 -16.6°
Sets 09:39:45 0° 187° (S) 3,257 7.4 -16.0°
